Flag for Kazakhstan Weather past 2 weeks in Almaty, Kazakhstan

Now
90 °F

Broken clouds.


Feels Like: 86 °F
Forecast: 73 / 91 °F
Wind: 17 mph from North

Location: Almaty Airport

Current Time: Jul 28, 2015 at 3:16:35 PM

Latest Report: Jul 28, 2015 at 2:30 PM


Visibility: N/A

Pressure: 29.68 "Hg (27.17 "Hg at 790m altitude)

Humidity: 14%

Dew point: 34 °F

Location of AlmatyLocation

Historic Weather in Almaty — Graph

°F

Almaty temperature yesterday

Maximum temperature yesterday: 99 °F (at 4:00 PM)
Minimum temperature yesterday: 66 °F (at 6:00 AM)
Average temperature yesterday: 84 °F

Past Weeks' High & Low Weather Summary

 TemperatureHumidityPressure
High100 °F (Jul 14, 4:30 PM)73% (Jul 25, 5:00 AM)29.98 "Hg (Jul 25, 5:00 AM)
Low63 °F (Jul 26, 4:30 AM)7% (Jul 17, 3:00 PM)29.56 "Hg (Jul 16, 5:30 PM)
Average84 °F32%29.73 "Hg
* Reported Jul 13 2:00 PM — Jul 28 2:30 PM, Almaty, Weather by CustomWeather, © 2015

Note: Actual official high and low records may vary slightly from our data, if they occured in-between our weather recording intervals... More about our weather records

Advertising

Almaty weather history for previous 24 hours

 ConditionsComfort  
Time TempWeatherWind HumidityBarometerVisibility
2:30 PM
Tue, Jul 28
90 °FBroken clouds.17 mph14%29.68 "HgN/A
2:00 PM93 °FBroken clouds.13 mph11%29.68 "HgN/A
1:30 PM91 °FPartly sunny.13 mph13%29.65 "HgN/A
1:00 PM91 °FPartly sunny.8 mph11%29.65 "HgN/A
12:30 PM93 °FPartly sunny.8 mph11%29.65 "HgN/A
12:00 PM95 °FBroken clouds.6 mph11%29.65 "HgN/A
11:30 AM93 °FBroken clouds.3 mph11%29.62 "HgN/A
11:00 AM91 °FBroken clouds.8 mph12%29.62 "HgN/A
10:30 AM90 °FBroken clouds.6 mph14%29.62 "HgN/A
10:00 AM90 °FBroken clouds.8 mph13%29.65 "HgN/A
9:30 AM88 °FBroken clouds.10 mph18%29.65 "HgN/A
9:00 AM86 °FBroken clouds.8 mph18%29.65 "HgN/A
8:30 AM82 °FBroken clouds.6 mph28%29.62 "HgN/A
8:00 AM81 °FBroken clouds.3 mph30%29.62 "HgN/A
7:30 AM77 °FBroken clouds.3 mph34%29.62 "HgN/A
7:00 AM73 °FBroken clouds.3 mph41%29.59 "HgN/A
6:30 AM75 °FBroken clouds.3 mph34%29.59 "HgN/A
6:00 AM73 °FBroken clouds.3 mph33%29.59 "HgN/A
5:30 AM72 °FPartly cloudy.6 mph41%29.59 "HgN/A
5:00 AM72 °FPartly cloudy.3 mph41%29.56 "HgN/A
4:30 AM72 °FPassing clouds.3 mph41%29.56 "HgN/A
4:00 AM73 °FPassing clouds.3 mph36%29.56 "HgN/A
3:30 AM75 °FPassing clouds.6 mph31%29.56 "HgN/A
3:00 AM79 °FPassing clouds.6 mph28%29.56 "HgN/A
2:30 AM77 °FPassing clouds.8 mph28%29.56 "HgN/A
2:00 AM79 °FPassing clouds.8 mph26%29.56 "HgN/A
1:30 AM81 °FPassing clouds.10 mph26%29.59 "HgN/A
1:00 AM75 °FPassing clouds.3 mph39%29.59 "HgN/A
12:30 AM75 °FPassing clouds.6 mph44%29.59 "HgN/A
12:00 AM75 °FPassing clouds.8 mph47%29.59 "HgN/A
11:30 PM
Mon, Jul 27
77 °FPassing clouds.1 mph44%29.59 "HgN/A
11:00 PM77 °FPassing clouds.1 mph44%29.59 "HgN/A
10:30 PM79 °FPassing clouds.1 mph37%29.56 "HgN/A
10:00 PM81 °FPassing clouds.3 mph34%29.59 "HgN/A
9:30 PM82 °FPartly cloudy.6 mph32%29.59 "HgN/A
9:00 PM82 °FPartly cloudy.3 mph35%29.59 "HgN/A
8:30 PM86 °FPartly cloudy.6 mph29%29.59 "HgN/A
8:00 PM88 °FPartly sunny.6 mph29%29.59 "HgN/A
7:30 PM91 °FPartly sunny.8 mph24%29.56 "HgN/A
7:00 PM93 °FPartly sunny.8 mph21%29.56 "HgN/A
6:30 PM93 °FScattered clouds.8 mph21%29.56 "HgN/A
6:00 PM95 °FScattered clouds.13 mph19%29.56 "HgN/A
5:30 PM97 °FScattered clouds.8 mph16%29.56 "HgN/A
5:00 PM99 °FScattered clouds.6 mph14%29.56 "HgN/A
4:30 PM99 °FScattered clouds.3 mph12%29.56 "HgN/A
4:00 PM99 °FScattered clouds.6 mph12%29.59 "HgN/A
3:30 PM97 °FScattered clouds.6 mph13%29.59 "HgN/A
3:00 PM97 °FScattered clouds.6 mph13%29.59 "HgN/A
Weather by CustomWeather, © 2015

See weather overviewHow to use our weather pages